| time (UTC) | temp F | wind direction | speed MPH | gust MPH | rain 1hr in | rain 24hr in | rain mn in | humidity % | barometer mb |
| 20260831134547 | 50 | 32 | 0.0 | 2.0 | 0.00 | 0.00 | 0.00 | 75 | 1014.4 |
| 20260831134045 | 50 | 32 | 0.0 | 2.0 | 0.00 | 0.00 | 0.00 | 75 | 1014.4 |
| 20260831133545 | 50 | 40 | 0.0 | 2.0 | 0.00 | 0.00 | 0.00 | 74 | 1014.4 |
| 20260831133046 | 50 | 63 | 0.0 | 2.0 | 0.00 | 0.00 | 0.00 | 74 | 1014.4 |
| 20260831132545 | 50 | 63 | 0.0 | 1.0 | 0.00 | 0.00 | 0.00 | 74 | 1014.4 |
| 20260831132045 | 50 | 63 | 0.0 | 2.0 | 0.00 | 0.00 | 0.00 | 74 | 1014.4 |
| 20260831131550 | 50 | 63 | 0.0 | 2.0 | 0.00 | 0.00 | 0.00 | 74 | 1014.3 |
| 20260831131046 | 50 | 63 | 0.0 | 1.0 | 0.00 | 0.00 | 0.00 | 74 | 1014.4 |
| 20260831130544 | 50 | 63 | 0.0 | 1.0 | 0.00 | 0.00 | 0.00 | 74 | 1014.3 |
| 20260831130045 | 50 | 63 | 0.0 | 1.0 | 0.00 | 0.00 | 0.00 | 74 | 1014.3 |
| 20260831125544 | 50 | 63 | 0.0 | 1.0 | 0.00 | 0.00 | 0.00 | 74 | 1014.3 |
| 20260831125044 | 51 | 63 | 0.0 | 1.0 | 0.00 | 0.00 | 0.00 | 73 | 1014.4 |
| 20260831124542 | 51 | 63 | 0.0 | 2.0 | 0.00 | 0.00 | 0.00 | 73 | 1014.3 |
| 20260831124041 | 51 | 63 | 0.0 | 2.0 | 0.00 | 0.00 | 0.00 | 73 | 1014.3 |
| 20260831123541 | 51 | 63 | 0.0 | 2.0 | 0.00 | 0.00 | 0.00 | 73 | 1014.3 |
| 20260831123041 | 51 | 63 | 1.0 | 3.0 | 0.00 | 0.00 | 0.00 | 73 | 1014.3 |
| 20260831122541 | 51 | 63 | 0.0 | 4.0 | 0.00 | 0.00 | 0.00 | 73 | 1014.3 |
| 20260831122043 | 51 | 50 | 0.0 | 5.0 | 0.00 | 0.00 | 0.00 | 73 | 1014.2 |
| 20260831121540 | 51 | 56 | 1.0 | 5.0 | 0.00 | 0.00 | 0.00 | 73 | 1014.2 |
| 20260831121040 | 51 | 57 | 0.0 | 2.0 | 0.00 | 0.00 | 0.00 | 73 | 1014.2 |
| 20260831120540 | 51 | 57 | 0.0 | 2.0 | 0.00 | 0.00 | 0.00 | 73 | 1014.2 |
| 20260831120039 | 51 | 58 | 0.0 | 2.0 | 0.00 | 0.00 | 0.00 | 73 | 1014.2 |
| 20260831115538 | 51 | 58 | 0.0 | 3.0 | 0.00 | 0.00 | 0.00 | 72 | 1014.2 |
| 20260831115037 | 52 | 59 | 0.0 | 3.0 | 0.00 | 0.00 | 0.00 | 72 | 1014.2 |
| 20260831114537 | 52 | 59 | 0.0 | 4.0 | 0.00 | 0.00 | 0.00 | 72 | 1014.2 |
| 20260831114036 | 52 | 62 | 0.0 | 4.0 | 0.00 | 0.00 | 0.00 | 72 | 1014.2 |
| 20260831113535 | 52 | 63 | 1.0 | 3.0 | 0.00 | 0.00 | 0.00 | 72 | 1014.2 |
| 20260831113035 | 52 | 63 | 0.0 | 3.0 | 0.00 | 0.00 | 0.00 | 72 | 1014.2 |
| 20260831112535 | 52 | 63 | 0.0 | 3.0 | 0.00 | 0.00 | 0.00 | 72 | 1014.2 |
| 20260831112034 | 52 | 63 | 0.0 | 3.0 | 0.00 | 0.00 | 0.00 | 72 | 1014.2 |
| 20260831111534 | 52 | 63 | 0.0 | 3.0 | 0.00 | 0.00 | 0.00 | 71 | 1014.2 |
| 20260831111033 | 52 | 63 | 0.0 | 4.0 | 0.00 | 0.00 | 0.00 | 71 | 1014.2 |
| 20260831110533 | 52 | 48 | 0.0 | 5.0 | 0.00 | 0.00 | 0.00 | 71 | 1014.3 |
| 20260831110154 | 52 | 58 | 1.0 | 8.0 | 0.00 | 0.00 | 0.00 | 71 | 1014.2 |
| 20260831105533 | 52 | 48 | 1.0 | 8.0 | 0.00 | 0.00 | 0.00 | 72 | 1014.2 |
| 20260831105033 | 52 | 62 | 1.0 | 7.0 | 0.00 | 0.00 | 0.00 | 72 | 1014.2 |
| 20260831104538 | 52 | 57 | 0.0 | 2.0 | 0.00 | 0.00 | 0.00 | 72 | 1014.2 |
| 20260831104032 | 52 | 54 | 0.0 | 2.0 | 0.00 | 0.00 | 0.00 | 72 | 1014.2 |
| 20260831103532 | 52 | 52 | 0.0 | 1.0 | 0.00 | 0.00 | 0.00 | 72 | 1014.1 |
| 20260831103030 | 52 | 52 | 0.0 | 1.0 | 0.00 | 0.00 | 0.00 | 72 | 1014.1 |
| 20260831102530 | 52 | 52 | 0.0 | 1.0 | 0.00 | 0.00 | 0.00 | 72 | 1014.1 |
| 20260831102030 | 52 | 52 | 0.0 | 1.0 | 0.00 | 0.00 | 0.00 | 72 | 1014.1 |
| 20260831101530 | 52 | 52 | 0.0 | 2.0 | 0.00 | 0.00 | 0.00 | 72 | 1014.2 |
| 20260831101034 | 52 | 52 | 0.0 | 3.0 | 0.00 | 0.00 | 0.00 | 72 | 1014.2 |
| 20260831100528 | 52 | 57 | 0.0 | 3.0 | 0.00 | 0.00 | 0.00 | 72 | 1014.2 |
| 20260831100027 | 52 | 62 | 0.0 | 4.0 | 0.00 | 0.00 | 0.00 | 72 | 1014.3 |
| 20260831095527 | 52 | 63 | 0.0 | 4.0 | 0.00 | 0.00 | 0.00 | 73 | 1014.3 |
| 20260831095026 | 52 | 17 | 0.0 | 1.0 | 0.00 | 0.00 | 0.00 | 72 | 1014.3 |
| 20260831094526 | 52 | 17 | 0.0 | 2.0 | 0.00 | 0.00 | 0.00 | 72 | 1014.3 |
| 20260831094025 | 52 | 17 | 0.0 | 2.0 | 0.00 | 0.00 | 0.00 | 72 | 1014.4 |
| 20260831093525 | 53 | 11 | 0.0 | 2.0 | 0.00 | 0.00 | 0.00 | 72 | 1014.5 |
| 20260831093023 | 53 | 11 | 0.0 | 2.0 | 0.00 | 0.00 | 0.00 | 72 | 1014.5 |
| 20260831092523 | 53 | 11 | 0.0 | 2.0 | 0.00 | 0.00 | 0.00 | 72 | 1014.6 |
| 20260831092021 | 53 | 11 | 0.0 | 2.0 | 0.00 | 0.00 | 0.00 | 71 | 1014.5 |
| 20260831091520 | 53 | 11 | 0.0 | 1.0 | 0.00 | 0.00 | 0.00 | 71 | 1014.5 |
| 20260831091019 | 53 | 11 | 0.0 | 1.0 | 0.00 | 0.00 | 0.00 | 71 | 1014.6 |
| 20260831090519 | 54 | 11 | 0.0 | 1.0 | 0.00 | 0.00 | 0.00 | 70 | 1014.5 |
| 20260831090019 | 54 | 11 | 0.0 | 1.0 | 0.00 | 0.00 | 0.00 | 70 | 1014.6 |
| 20260831085519 | 54 | 11 | 0.0 | 2.0 | 0.00 | 0.00 | 0.00 | 70 | 1014.6 |
| 20260831085017 | 54 | 11 | 0.0 | 2.0 | 0.00 | 0.00 | 0.00 | 70 | 1014.6 |
| 20260831084517 | 54 | 11 | 1.0 | 2.0 | 0.00 | 0.00 | 0.00 | 71 | 1014.7 |
| 20260831084016 | 54 | 11 | 1.0 | 2.0 | 0.00 | 0.00 | 0.00 | 70 | 1014.7 |
| 20260831083519 | 54 | 11 | 1.0 | 2.0 | 0.00 | 0.00 | 0.00 | 70 | 1014.7 |
| 20260831083031 | 54 | 11 | 1.0 | 2.0 | 0.00 | 0.00 | 0.00 | 70 | 1014.7 |
| 20260831082514 | 54 | 11 | 1.0 | 2.0 | 0.00 | 0.00 | 0.00 | 69 | 1014.7 |
| 20260831082013 | 54 | 11 | 1.0 | 2.0 | 0.00 | 0.00 | 0.00 | 68 | 1014.7 |
| 20260831081512 | 55 | 11 | 0.0 | 2.0 | 0.00 | 0.00 | 0.00 | 68 | 1014.8 |
| 20260831081011 | 55 | 11 | 1.0 | 2.0 | 0.00 | 0.00 | 0.00 | 68 | 1014.9 |
| 20260831080510 | 55 | 11 | 1.0 | 2.0 | 0.00 | 0.00 | 0.00 | 68 | 1014.9 |
| 20260831080010 | 55 | 11 | 1.0 | 2.0 | 0.00 | 0.00 | 0.00 | 67 | 1014.8 |
| 20260831075509 | 55 | 11 | 0.0 | 2.0 | 0.00 | 0.00 | 0.00 | 67 | 1014.8 |
| 20260831075009 | 55 | 11 | 1.0 | 2.0 | 0.00 | 0.00 | 0.00 | 67 | 1014.9 |
| 20260831074509 | 55 | 11 | 1.0 | 2.0 | 0.00 | 0.00 | 0.00 | 67 | 1014.8 |
| 20260831074008 | 55 | 11 | 1.0 | 2.0 | 0.00 | 0.00 | 0.00 | 67 | 1014.9 |
| 20260831073508 | 55 | 11 | 1.0 | 2.0 | 0.00 | 0.00 | 0.00 | 67 | 1014.9 |
| 20260831073013 | 56 | 11 | 1.0 | 2.0 | 0.00 | 0.00 | 0.00 | 66 | 1014.9 |
| 20260831072506 | 56 | 11 | 1.0 | 2.0 | 0.00 | 0.00 | 0.00 | 66 | 1014.9 |
| 20260831072004 | 56 | 11 | 0.0 | 2.0 | 0.00 | 0.00 | 0.00 | 66 | 1014.9 |
| 20260831071503 | 56 | 11 | 0.0 | 2.0 | 0.00 | 0.00 | 0.00 | 65 | 1014.9 |
| 20260831071002 | 57 | 11 | 1.0 | 3.0 | 0.00 | 0.00 | 0.00 | 64 | 1014.9 |
| 20260831070502 | 57 | 10 | 0.0 | 5.0 | 0.00 | 0.00 | 0.00 | 63 | 1014.9 |
| 20260831070100 | 58 | 357 | 2.0 | 5.0 | 0.00 | 0.00 | 0.00 | 62 | 1014.9 |
| 20260831065600 | 58 | 2 | 1.0 | 4.0 | 0.00 | 0.00 | 0.00 | 63 | 1014.9 |
| 20260831065100 | 57 | 48 | 0.0 | 2.0 | 0.00 | 0.00 | 0.00 | 64 | 1014.9 |
| 20260831064600 | 57 | 48 | 0.0 | 2.0 | 0.00 | 0.00 | 0.00 | 64 | 1014.9 |
| 20260831064058 | 57 | 48 | 0.0 | 2.0 | 0.00 | 0.00 | 0.00 | 63 | 1014.8 |
| 20260831063559 | 58 | 48 | 0.0 | 2.0 | 0.00 | 0.00 | 0.00 | 63 | 1014.9 |
| 20260831063058 | 58 | 48 | 0.0 | 2.0 | 0.00 | 0.00 | 0.00 | 62 | 1014.9 |
| 20260831062558 | 58 | 48 | 1.0 | 2.0 | 0.00 | 0.00 | 0.00 | 62 | 1014.9 |
| 20260831062058 | 58 | 48 | 1.0 | 4.0 | 0.00 | 0.00 | 0.00 | 61 | 1014.9 |
| 20260831061558 | 59 | 2 | 0.0 | 5.0 | 0.00 | 0.00 | 0.00 | 61 | 1015.0 |
| 20260831061058 | 59 | 2 | 0.0 | 3.0 | 0.00 | 0.00 | 0.00 | 61 | 1015.0 |
| 20260831060559 | 59 | 23 | 2.0 | 3.0 | 0.00 | 0.00 | 0.00 | 59 | 1015.0 |
| 20260831060108 | 59 | 16 | 0.0 | 3.0 | 0.00 | 0.00 | 0.00 | 60 | 1015.0 |
| 20260831055603 | 59 | 10 | 1.0 | 2.0 | 0.00 | 0.00 | 0.00 | 60 | 1014.9 |
| 20260831055058 | 60 | 10 | 0.0 | 1.0 | 0.00 | 0.00 | 0.00 | 60 | 1015.0 |
| 20260831054558 | 60 | 10 | 0.0 | 1.0 | 0.00 | 0.00 | 0.00 | 59 | 1015.0 |
| 20260831054057 | 59 | 10 | 0.0 | 1.0 | 0.00 | 0.00 | 0.00 | 60 | 1015.0 |
| 20260831053557 | 59 | 10 | 0.0 | 2.0 | 0.00 | 0.00 | 0.00 | 60 | 1015.0 |
| 20260831053059 | 60 | 10 | 0.0 | 2.0 | 0.00 | 0.00 | 0.00 | 59 | 1015.1 |
| 20260831052557 | 60 | 12 | 0.0 | 2.0 | 0.00 | 0.00 | 0.00 | 58 | 1015.1 |
| 20260831052056 | 60 | 12 | 0.0 | 4.0 | 0.00 | 0.00 | 0.00 | 58 | 1015.1 |
| 20260831051557 | 60 | 12 | 0.0 | 4.0 | 0.00 | 0.00 | 0.00 | 58 | 1015.1 |
| 20260831051056 | 60 | 360 | 1.0 | 4.0 | 0.00 | 0.00 | 0.00 | 58 | 1015.0 |
| 20260831050556 | 61 | 242 | 0.0 | 6.0 | 0.00 | 0.00 | 0.00 | 56 | 1015.0 |
| 20260831050056 | 61 | 242 | 1.0 | 10.0 | 0.00 | 0.00 | 0.00 | 57 | 1015.0 |
| 20260831045556 | 61 | 339 | 0.0 | 2.0 | 0.00 | 0.00 | 0.00 | 57 | 1015.1 |
| 20260831045056 | 61 | 339 | 0.0 | 3.0 | 0.00 | 0.00 | 0.00 | 55 | 1015.0 |
| 20260831044604 | 61 | 331 | 0.0 | 5.0 | 0.00 | 0.00 | 0.00 | 56 | 1015.0 |
| 20260831044056 | 61 | 279 | 0.0 | 3.0 | 0.00 | 0.00 | 0.00 | 55 | 1015.0 |
| 20260831043556 | 62 | 265 | 0.0 | 8.0 | 0.00 | 0.00 | 0.00 | 54 | 1015.0 |
| 20260831043055 | 62 | 191 | 0.0 | 8.0 | 0.00 | 0.00 | 0.00 | 54 | 1015.0 |
| 20260831042555 | 63 | 250 | 1.0 | 6.0 | 0.00 | 0.00 | 0.00 | 52 | 1015.0 |
| 20260831042059 | 64 | 253 | 0.0 | 6.0 | 0.00 | 0.00 | 0.00 | 51 | 1015.0 |
| 20260831041644 | 64 | 334 | 0.0 | 14.0 | 0.00 | 0.00 | 0.00 | 51 | 1014.9 |
| 20260831041055 | 65 | 191 | 4.0 | 14.0 | 0.00 | 0.00 | 0.00 | 51 | 1014.9 |
| 20260831040555 | 65 | 260 | 2.0 | 7.0 | 0.00 | 0.00 | 0.00 | 51 | 1014.9 |
| 20260831040058 | 64 | 191 | 1.0 | 3.0 | 0.00 | 0.00 | 0.00 | 50 | 1015.0 |
| 20260831035555 | 64 | 352 | 0.0 | 4.0 | 0.00 | 0.00 | 0.00 | 49 | 1014.8 |
| 20260831035054 | 66 | 352 | 0.0 | 4.0 | 0.00 | 0.00 | 0.00 | 46 | 1014.8 |
| 20260831034554 | 65 | 191 | 0.0 | 4.0 | 0.00 | 0.00 | 0.00 | 47 | 1014.7 |
| 20260831034055 | 65 | 191 | 0.0 | 4.0 | 0.00 | 0.00 | 0.00 | 48 | 1014.7 |
| 20260831033554 | 65 | 281 | 0.0 | 3.0 | 0.00 | 0.00 | 0.00 | 47 | 1014.7 |
| 20260831033055 | 66 | 276 | 0.0 | 8.0 | 0.00 | 0.00 | 0.00 | 45 | 1014.6 |
| 20260831032554 | 67 | 248 | 0.0 | 8.0 | 0.00 | 0.00 | 0.00 | 44 | 1014.5 |
| 20260831032056 | 68 | 249 | 1.0 | 4.0 | 0.00 | 0.00 | 0.00 | 42 | 1014.7 |
| 20260831031553 | 69 | 271 | 0.0 | 3.0 | 0.00 | 0.00 | 0.00 | 41 | 1014.5 |
| 20260831031053 | 69 | 349 | 0.0 | 2.0 | 0.00 | 0.00 | 0.00 | 41 | 1014.5 |
| 20260831030558 | 69 | 356 | 0.0 | 3.0 | 0.00 | 0.00 | 0.00 | 40 | 1014.5 |
| 20260831030059 | 69 | 339 | 0.0 | 4.0 | 0.00 | 0.00 | 0.00 | 41 | 1014.5 |
| 20260831025553 | 69 | 321 | 0.0 | 7.0 | 0.00 | 0.00 | 0.00 | 41 | 1014.5 |
| 20260831025053 | 69 | 258 | 1.0 | 7.0 | 0.00 | 0.00 | 0.00 | 41 | 1014.5 |
| 20260831024615 | 69 | 331 | 1.0 | 4.0 | 0.00 | 0.00 | 0.00 | 41 | 1014.5 |
| 20260831024052 | 69 | 191 | 0.0 | 5.0 | 0.00 | 0.00 | 0.00 | 40 | 1014.5 |
| 20260831023551 | 69 | 259 | 1.0 | 5.0 | 0.00 | 0.00 | 0.00 | 40 | 1014.5 |
| 20260831023052 | 70 | 277 | 0.0 | 6.0 | 0.00 | 0.00 | 0.00 | 39 | 1014.4 |
| 20260831022551 | 70 | 352 | 0.0 | 6.0 | 0.00 | 0.00 | 0.00 | 39 | 1014.5 |
| 20260831022052 | 70 | 191 | 0.0 | 9.0 | 0.00 | 0.00 | 0.00 | 39 | 1014.5 |
| 20260831021554 | 70 | 266 | 2.0 | 12.0 | 0.00 | 0.00 | 0.00 | 40 | 1014.5 |
| 20260831021052 | 70 | 315 | 2.0 | 12.0 | 0.00 | 0.00 | 0.00 | 39 | 1014.4 |
| 20260831020555 | 70 | 237 | 2.0 | 11.0 | 0.00 | 0.00 | 0.00 | 38 | 1014.5 |
| 20260831020052 | 70 | 317 | 2.0 | 12.0 | 0.00 | 0.00 | 0.00 | 38 | 1014.5 |
| 20260831015551 | 71 | 223 | 1.0 | 12.0 | 0.00 | 0.00 | 0.00 | 37 | 1014.5 |
| 20260831015053 | 71 | 258 | 2.0 | 10.0 | 0.00 | 0.00 | 0.00 | 37 | 1014.5 |
| 20260831014551 | 71 | 191 | 3.0 | 12.0 | 0.00 | 0.00 | 0.00 | 35 | 1014.4 |
| 20260831014050 | 72 | 273 | 2.0 | 13.0 | 0.00 | 0.00 | 0.00 | 34 | 1014.4 |
| 20260831013551 | 72 | 191 | 3.0 | 13.0 | 0.00 | 0.00 | 0.00 | 35 | 1014.4 |
| 20260831013105 | 72 | 257 | 3.0 | 10.0 | 0.00 | 0.00 | 0.00 | 35 | 1014.5 |
| 20260831012548 | 72 | 191 | 4.0 | 16.0 | 0.00 | 0.00 | 0.00 | 35 | 1014.5 |
| 20260831012048 | 72 | 191 | 7.0 | 16.0 | 0.00 | 0.00 | 0.00 | 34 | 1014.5 |
| 20260831011554 | 72 | 254 | 6.0 | 14.0 | 0.00 | 0.00 | 0.00 | 35 | 1014.5 |
| 20260831011048 | 72 | 284 | 5.0 | 16.0 | 0.00 | 0.00 | 0.00 | 35 | 1014.6 |
| 20260831010548 | 72 | 265 | 6.0 | 23.0 | 0.00 | 0.00 | 0.00 | 35 | 1014.5 |
| 20260831010115 | 72 | 318 | 6.0 | 23.0 | 0.00 | 0.00 | 0.00 | 35 | 1014.6 |
| 20260831005548 | 72 | 267 | 8.0 | 13.0 | 0.00 | 0.00 | 0.00 | 34 | 1014.6 |
| 20260831005047 | 72 | 250 | 6.0 | 13.0 | 0.00 | 0.00 | 0.00 | 34 | 1014.7 |
| 20260831004547 | 72 | 269 | 3.0 | 11.0 | 0.00 | 0.00 | 0.00 | 32 | 1014.7 |
| 20260831004046 | 72 | 191 | 3.0 | 14.0 | 0.00 | 0.00 | 0.00 | 35 | 1014.7 |
| 20260831003546 | 72 | 191 | 3.0 | 13.0 | 0.00 | 0.00 | 0.00 | 35 | 1014.7 |
| 20260831003046 | 73 | 258 | 4.0 | 18.0 | 0.00 | 0.00 | 0.00 | 34 | 1014.7 |
| 20260831002545 | 73 | 250 | 4.0 | 18.0 | 0.00 | 0.00 | 0.00 | 34 | 1014.7 |
| 20260831002045 | 73 | 272 | 5.0 | 16.0 | 0.00 | 0.00 | 0.00 | 35 | 1014.8 |
| 20260831001545 | 73 | 317 | 5.0 | 17.0 | 0.00 | 0.00 | 0.00 | 36 | 1014.9 |
| 20260831001046 | 73 | 344 | 3.0 | 17.0 | 0.00 | 0.00 | 0.00 | 33 | 1014.8 |
| 20260831000545 | 74 | 191 | 6.0 | 16.0 | 0.00 | 0.00 | 0.00 | 33 | 1014.8 |
| 20260830235544 | 73 | 256 | 6.0 | 17.0 | 0.00 | 0.00 | 0.00 | 33 | 1014.8 |
| 20260830235045 | 74 | 232 | 7.0 | 17.0 | 0.00 | 0.00 | 0.00 | 32 | 1014.7 |
| 20260830234544 | 74 | 264 | 7.0 | 16.0 | 0.00 | 0.00 | 0.00 | 33 | 1014.8 |
| 20260830234042 | 74 | 242 | 6.0 | 15.0 | 0.00 | 0.00 | 0.00 | 33 | 1014.9 |
| 20260830233542 | 74 | 191 | 8.0 | 15.0 | 0.00 | 0.00 | 0.00 | 33 | 1015.0 |
| 20260830233042 | 74 | 191 | 7.0 | 17.0 | 0.00 | 0.00 | 0.00 | 32 | 1015.1 |
| 20260830232545 | 74 | 246 | 7.0 | 17.0 | 0.00 | 0.00 | 0.00 | 32 | 1015.1 |
| 20260830232043 | 75 | 265 | 8.0 | 17.0 | 0.00 | 0.00 | 0.00 | 32 | 1015.2 |
| 20260830231543 | 75 | 273 | 6.0 | 19.0 | 0.00 | 0.00 | 0.00 | 33 | 1015.2 |
| 20260830231040 | 75 | 252 | 9.0 | 19.0 | 0.00 | 0.00 | 0.00 | 33 | 1015.3 |
| 20260830230539 | 74 | 238 | 6.0 | 17.0 | 0.00 | 0.00 | 0.00 | 34 | 1015.4 |
| 20260830230050 | 75 | 267 | 7.0 | 18.0 | 0.00 | 0.00 | 0.00 | 34 | 1015.4 |
| 20260830225538 | 75 | 248 | 4.0 | 18.0 | 0.00 | 0.00 | 0.00 | 34 | 1015.4 |
| 20260830225038 | 75 | 257 | 5.0 | 16.0 | 0.00 | 0.00 | 0.00 | 34 | 1015.4 |
| 20260830224537 | 75 | 253 | 5.0 | 14.0 | 0.00 | 0.00 | 0.00 | 36 | 1015.5 |
| 20260830224036 | 75 | 252 | 6.0 | 15.0 | 0.00 | 0.00 | 0.00 | 34 | 1015.6 |
| 20260830223536 | 75 | 248 | 10.0 | 19.0 | 0.00 | 0.00 | 0.00 | 35 | 1015.8 |
| 20260830223043 | 75 | 267 | 10.0 | 20.0 | 0.00 | 0.00 | 0.00 | 37 | 1015.8 |
| 20260830222534 | 75 | 244 | 8.0 | 18.0 | 0.00 | 0.00 | 0.00 | 37 | 1016.0 |
| 20260830222034 | 75 | 247 | 10.0 | 21.0 | 0.00 | 0.00 | 0.00 | 35 | 1016.0 |
| 20260830221536 | 74 | 253 | 11.0 | 20.0 | 0.00 | 0.00 | 0.00 | 38 | 1016.1 |
| 20260830221032 | 74 | 259 | 14.0 | 20.0 | 0.00 | 0.00 | 0.00 | 37 | 1016.1 |
| 20260830220531 | 74 | 191 | 11.0 | 20.0 | 0.00 | 0.00 | 0.00 | 36 | 1016.2 |
| 20260830220033 | 74 | 234 | 11.0 | 20.0 | 0.00 | 0.00 | 0.00 | 36 | 1016.2 |
| 20260830215531 | 74 | 239 | 11.0 | 23.0 | 0.00 | 0.00 | 0.00 | 38 | 1016.3 |
| 20260830215033 | 74 | 252 | 13.0 | 24.0 | 0.00 | 0.00 | 0.00 | 37 | 1016.3 |
| 20260830214532 | 74 | 252 | 10.0 | 23.0 | 0.00 | 0.00 | 0.00 | 35 | 1016.4 |
| 20260830214028 | 74 | 257 | 14.0 | 22.0 | 0.00 | 0.00 | 0.00 | 37 | 1016.5 |
| 20260830213526 | 74 | 260 | 14.0 | 22.0 | 0.00 | 0.00 | 0.00 | 35 | 1016.6 |
| 20260830213034 | 74 | 246 | 13.0 | 25.0 | 0.00 | 0.00 | 0.00 | 36 | 1016.7 |
| 20260830212526 | 74 | 243 | 13.0 | 22.0 | 0.00 | 0.00 | 0.00 | 38 | 1016.7 |
| 20260830212025 | 74 | 271 | 15.0 | 24.0 | 0.00 | 0.00 | 0.00 | 38 | 1016.8 |
| 20260830211524 | 73 | 264 | 14.0 | 23.0 | 0.00 | 0.00 | 0.00 | 38 | 1016.8 |
| 20260830211024 | 73 | 244 | 13.0 | 22.0 | 0.00 | 0.00 | 0.00 | 38 | 1016.8 |
| 20260830210522 | 74 | 240 | 11.0 | 23.0 | 0.00 | 0.00 | 0.00 | 38 | 1016.8 |
| 20260830210027 | 73 | 257 | 9.0 | 23.0 | 0.00 | 0.00 | 0.00 | 39 | 1016.9 |
| 20260830205521 | 73 | 276 | 11.0 | 24.0 | 0.00 | 0.00 | 0.00 | 39 | 1016.9 |
| 20260830205021 | 73 | 252 | 12.0 | 24.0 | 0.00 | 0.00 | 0.00 | 39 | 1016.9 |
| 20260830204521 | 73 | 276 | 9.0 | 21.0 | 0.00 | 0.00 | 0.00 | 39 | 1017.1 |
| 20260830204019 | 72 | 250 | 9.0 | 27.0 | 0.00 | 0.00 | 0.00 | 40 | 1017.1 |
| 20260830203519 | 73 | 260 | 10.0 | 27.0 | 0.00 | 0.00 | 0.00 | 39 | 1017.2 |
| 20260830203018 | 72 | 191 | 10.0 | 22.0 | 0.00 | 0.00 | 0.00 | 40 | 1017.3 |
| 20260830202517 | 72 | 210 | 11.0 | 22.0 | 0.00 | 0.00 | 0.00 | 40 | 1017.4 |
| 20260830202018 | 72 | 251 | 10.0 | 25.0 | 0.00 | 0.00 | 0.00 | 40 | 1017.5 |
| 20260830201516 | 72 | 271 | 10.0 | 25.0 | 0.00 | 0.00 | 0.00 | 41 | 1017.6 |
| 20260830201016 | 72 | 269 | 10.0 | 22.0 | 0.00 | 0.00 | 0.00 | 41 | 1017.6 |
| 20260830200515 | 72 | 242 | 13.0 | 24.0 | 0.00 | 0.00 | 0.00 | 42 | 1017.6 |
| 20260830200015 | 72 | 265 | 12.0 | 24.0 | 0.00 | 0.00 | 0.00 | 40 | 1017.7 |
| 20260830195514 | 72 | 275 | 14.0 | 24.0 | 0.00 | 0.00 | 0.00 | 40 | 1017.8 |
| 20260830195014 | 72 | 232 | 12.0 | 24.0 | 0.00 | 0.00 | 0.00 | 43 | 1017.9 |
| 20260830194517 | 71 | 244 | 13.0 | 20.0 | 0.00 | 0.00 | 0.00 | 41 | 1017.9 |
| 20260830194011 | 71 | 231 | 13.0 | 20.0 | 0.00 | 0.00 | 0.00 | 41 | 1017.9 |
| 20260830193513 | 71 | 251 | 10.0 | 23.0 | 0.00 | 0.00 | 0.00 | 42 | 1017.9 |
| 20260830193012 | 71 | 267 | 10.0 | 23.0 | 0.00 | 0.00 | 0.00 | 42 | 1018.0 |
| 20260830192511 | 71 | 240 | 10.0 | 17.0 | 0.00 | 0.00 | 0.00 | 45 | 1018.2 |
| 20260830192009 | 70 | 245 | 9.0 | 16.0 | 0.00 | 0.00 | 0.00 | 44 | 1018.2 |
| 20260830191508 | 70 | 260 | 8.0 | 15.0 | 0.00 | 0.00 | 0.00 | 42 | 1018.3 |
| 20260830191010 | 70 | 323 | 8.0 | 19.0 | 0.00 | 0.00 | 0.00 | 44 | 1018.4 |
| 20260830190507 | 70 | 269 | 11.0 | 19.0 | 0.00 | 0.00 | 0.00 | 43 | 1018.4 |
| 20260830190010 | 70 | 233 | 10.0 | 19.0 | 0.00 | 0.00 | 0.00 | 43 | 1018.4 |
| 20260830185506 | 69 | 259 | 12.0 | 19.0 | 0.00 | 0.00 | 0.00 | 43 | 1018.5 |
| 20260830185005 | 68 | 271 | 10.0 | 21.0 | 0.00 | 0.00 | 0.00 | 45 | 1018.6 |
| 20260830184504 | 69 | 271 | 11.0 | 21.0 | 0.00 | 0.00 | 0.00 | 44 | 1018.7 |
| 20260830184003 | 68 | 241 | 9.0 | 18.0 | 0.00 | 0.00 | 0.00 | 41 | 1018.8 |
| 20260830183504 | 69 | 267 | 11.0 | 22.0 | 0.00 | 0.00 | 0.00 | 42 | 1018.8 |
| 20260830183002 | 69 | 235 | 13.0 | 22.0 | 0.00 | 0.00 | 0.00 | 43 | 1018.8 |
| 20260830182602 | 69 | 251 | 9.0 | 20.0 | 0.00 | 0.00 | 0.00 | 45 | 1018.9 |
| 20260830182058 | 68 | 244 | 14.0 | 20.0 | 0.00 | 0.00 | 0.00 | 45 | 1019.0 |
| 20260830181558 | 68 | 272 | 9.0 | 19.0 | 0.00 | 0.00 | 0.00 | 44 | 1018.9 |
| 20260830181059 | 68 | 243 | 10.0 | 17.0 | 0.00 | 0.00 | 0.00 | 45 | 1018.9 |
| 20260830180557 | 68 | 237 | 12.0 | 20.0 | 0.00 | 0.00 | 0.00 | 45 | 1019.0 |
| 20260830180053 | 67 | 260 | 12.0 | 20.0 | 0.00 | 0.00 | 0.00 | 47 | 1019.0 |
| 20260830175552 | 66 | 231 | 13.0 | 21.0 | 0.00 | 0.00 | 0.00 | 46 | 1019.0 |
| 20260830175051 | 66 | 241 | 13.0 | 21.0 | 0.00 | 0.00 | 0.00 | 48 | 1019.0 |
| 20260830174551 | 66 | 261 | 12.0 | 21.0 | 0.00 | 0.00 | 0.00 | 49 | 1019.0 |
| 20260830174048 | 65 | 258 | 12.0 | 24.0 | 0.00 | 0.00 | 0.00 | 50 | 1019.0 |
| 20260830173547 | 65 | 262 | 12.0 | 24.0 | 0.00 | 0.00 | 0.00 | 48 | 1019.0 |
| 20260830173047 | 64 | 244 | 12.0 | 24.0 | 0.00 | 0.00 | 0.00 | 51 | 1019.0 |
| 20260830172545 | 64 | 249 | 11.0 | 22.0 | 0.00 | 0.00 | 0.00 | 55 | 1019.0 |
| 20260830172048 | 64 | 246 | 14.0 | 22.0 | 0.00 | 0.00 | 0.00 | 52 | 1019.0 |
| 20260830171547 | 64 | 269 | 14.0 | 22.0 | 0.00 | 0.00 | 0.00 | 55 | 1019.0 |
| 20260830171043 | 64 | 219 | 11.0 | 22.0 | 0.00 | 0.00 | 0.00 | 54 | 1019.1 |
| 20260830170543 | 64 | 278 | 12.0 | 21.0 | 0.00 | 0.00 | 0.00 | 55 | 1019.1 |
| 20260830170042 | 63 | 242 | 12.0 | 22.0 | 0.00 | 0.00 | 0.00 | 58 | 1019.1 |
| 20260830165541 | 63 | 265 | 10.0 | 22.0 | 0.00 | 0.00 | 0.00 | 59 | 1019.2 |
| 20260830165039 | 62 | 234 | 13.0 | 21.0 | 0.00 | 0.00 | 0.00 | 59 | 1019.2 |
| 20260830164538 | 62 | 246 | 11.0 | 21.0 | 0.00 | 0.00 | 0.00 | 61 | 1019.4 |
| 20260830164037 | 62 | 254 | 12.0 | 21.0 | 0.00 | 0.00 | 0.00 | 63 | 1019.4 |
| 20260830163537 | 61 | 238 | 12.0 | 21.0 | 0.00 | 0.00 | 0.00 | 63 | 1019.5 |
| 20260830163034 | 61 | 256 | 11.0 | 19.0 | 0.00 | 0.00 | 0.00 | 64 | 1019.5 |
| 20260830162533 | 60 | 254 | 12.0 | 18.0 | 0.00 | 0.00 | 0.00 | 63 | 1019.6 |
| 20260830162033 | 60 | 256 | 11.0 | 18.0 | 0.00 | 0.00 | 0.00 | 64 | 1019.6 |
| 20260830161539 | 60 | 266 | 10.0 | 18.0 | 0.00 | 0.00 | 0.00 | 64 | 1019.7 |
| 20260830161030 | 60 | 248 | 5.0 | 17.0 | 0.00 | 0.00 | 0.00 | 65 | 1019.8 |
| 20260830160529 | 59 | 250 | 9.0 | 17.0 | 0.00 | 0.00 | 0.00 | 66 | 1019.9 |
| 20260830160028 | 59 | 239 | 7.0 | 14.0 | 0.00 | 0.00 | 0.00 | 66 | 1020.0 |
| 20260830155527 | 59 | 267 | 6.0 | 15.0 | 0.00 | 0.00 | 0.00 | 66 | 1020.1 |
| 20260830155026 | 58 | 269 | 8.0 | 15.0 | 0.00 | 0.00 | 0.00 | 67 | 1020.1 |
| 20260830154525 | 58 | 240 | 3.0 | 11.0 | 0.00 | 0.00 | 0.00 | 67 | 1020.2 |
| 20260830154027 | 58 | 191 | 5.0 | 15.0 | 0.00 | 0.00 | 0.00 | 68 | 1020.3 |
| 20260830153524 | 58 | 250 | 5.0 | 15.0 | 0.00 | 0.00 | 0.00 | 67 | 1020.3 |
| 20260830153024 | 58 | 275 | 5.0 | 13.0 | 0.00 | 0.00 | 0.00 | 68 | 1020.2 |
| 20260830152525 | 57 | 246 | 4.0 | 13.0 | 0.00 | 0.00 | 0.00 | 69 | 1020.3 |
| 20260830152021 | 57 | 263 | 6.0 | 13.0 | 0.00 | 0.00 | 0.00 | 69 | 1020.2 |
| 20260830151520 | 57 | 252 | 3.0 | 18.0 | 0.00 | 0.00 | 0.00 | 70 | 1020.2 |
| 20260830151019 | 57 | 229 | 5.0 | 18.0 | 0.00 | 0.00 | 0.00 | 70 | 1020.3 |
| 20260830150518 | 56 | 310 | 4.0 | 9.0 | 0.00 | 0.00 | 0.00 | 71 | 1020.3 |
| 20260830150017 | 56 | 241 | 1.0 | 7.0 | 0.00 | 0.00 | 0.00 | 71 | 1020.3 |
| 20260830145516 | 55 | 23 | 2.0 | 10.0 | 0.00 | 0.00 | 0.00 | 72 | 1020.3 |
| 20260830145015 | 55 | 250 | 2.0 | 10.0 | 0.00 | 0.00 | 0.00 | 73 | 1020.4 |
| 20260830144517 | 55 | 274 | 1.0 | 9.0 | 0.00 | 0.00 | 0.00 | 73 | 1020.4 |
| 20260830144014 | 55 | 351 | 1.0 | 12.0 | 0.00 | 0.00 | 0.00 | 73 | 1020.4 |
| 20260830143514 | 55 | 258 | 4.0 | 12.0 | 0.00 | 0.00 | 0.00 | 74 | 1020.5 |
| 20260830143015 | 55 | 191 | 4.0 | 11.0 | 0.00 | 0.00 | 0.00 | 74 | 1020.4 |
| 20260830142512 | 54 | 250 | 4.0 | 9.0 | 0.00 | 0.00 | 0.00 | 75 | 1020.4 |
| 20260830142011 | 54 | 263 | 4.0 | 9.0 | 0.00 | 0.00 | 0.00 | 75 | 1020.4 |
| 20260830141510 | 54 | 257 | 5.0 | 10.0 | 0.00 | 0.00 | 0.00 | 75 | 1020.4 |
| 20260830141010 | 53 | 266 | 4.0 | 10.0 | 0.00 | 0.00 | 0.00 | 76 | 1020.3 |
| 20260830140509 | 53 | 256 | 3.0 | 11.0 | 0.00 | 0.00 | 0.00 | 76 | 1020.3 |
| 20260830140009 | 53 | 261 | 4.0 | 11.0 | 0.00 | 0.00 | 0.00 | 75 | 1020.3 |
| 20260830135507 | 54 | 258 | 5.0 | 11.0 | 0.00 | 0.00 | 0.00 | 75 | 1020.2 |
| 20260830135006 | 54 | 279 | 5.0 | 13.0 | 0.00 | 0.00 | 0.00 | 74 | 1020.2 |